This is the latest recevied weather packets stored in our database for station/object N5TDX. If no packets are shown the sender has not sent any weather packets the latest 1 day(s).
| Time | Temp. | Humidity | Pressure | Rain* | Wind** | Luminosity | Snow |
|---|---|---|---|---|---|---|---|
| 1777995643 | 25° C | 73% | 1002.3 hPa | 0 mm | 0.89 m/s, 247° | - | - |
| 1777995341 | 25° C | 72% | 1002.1 hPa | 0 mm | 0.89 m/s, 222° | - | - |
| 1777995038 | 25° C | 73% | 1002 hPa | 0 mm | 0.45 m/s, 187° | - | - |
| 1777994734 | 25° C | 73% | 1002.1 hPa | 0 mm | 1.34 m/s, 272° | - | - |
| 1777994430 | 25° C | 72% | 1002.4 hPa | 0 mm | 1.34 m/s, 239° | - | - |
| 1777994131 | 25° C | 72% | 1002.3 hPa | 0 mm | 0.45 m/s, 248° | - | - |
| 1777993828 | 25.56° C | 72% | 1002.5 hPa | 0 mm | 0.89 m/s, 251° | - | - |
| 1777993524 | 25° C | 74% | 1002.3 hPa | 0 mm | 0.89 m/s, 240° | - | - |
| 1777993220 | 24.44° C | 74% | 1002.3 hPa | 0 mm | 1.79 m/s, 187° | - | - |
| 1777992917 | 23.89° C | 76% | 1002.3 hPa | 0 mm | 0.89 m/s, 204° | - | - |
| 1777992615 | 23.89° C | 77% | 1002.2 hPa | 0 mm | 1.79 m/s, 287° | - | - |
| 1777992313 | 23.33° C | 78% | 1002.3 hPa | 0 mm | 0.45 m/s, 234° | - | - |
| 1777992010 | 23.33° C | 77% | 1002.5 hPa | 0 mm | 0.89 m/s, 227° | - | - |
| 1777991708 | 23.33° C | 78% | 1002.5 hPa | 0 mm | 0.45 m/s, 198° | - | - |
| 1777991405 | 23.33° C | 79% | 1002.3 hPa | 0 mm | 0.45 m/s, 226° | - | - |
| 1777991102 | 23.33° C | 79% | 1002.5 hPa | 0 mm | 0.89 m/s, 320° | - | - |
| 1777990799 | 22.78° C | 79% | 1002.6 hPa | 0 mm | 1.34 m/s, 250° | - | - |
| 1777990496 | 22.78° C | 79% | 1002.5 hPa | 0 mm | 0.89 m/s, 220° | - | - |
| 1777990193 | 22.78° C | 80% | 1002.2 hPa | 0 mm | 0.89 m/s, 255° | - | - |
| 1777989889 | 22.78° C | 80% | 1002.4 hPa | 0 mm | 0.89 m/s, 267° | - | - |
| 1777989586 | 22.78° C | 80% | 1002.3 hPa | 0 mm | 0.45 m/s, 259° | - | - |
| 1777989283 | 22.78° C | 80% | 1002.3 hPa | 0 mm | 1.34 m/s, 214° | - | - |
| 1777988979 | 22.78° C | 81% | 1002.2 hPa | 0 mm | 0.89 m/s, 215° | - | - |
| 1777988676 | 22.78° C | 81% | 1002.5 hPa | 0 mm | 0.89 m/s, 151° | - | - |
| 1777988372 | 22.78° C | 81% | 1002.2 hPa | 0 mm | 0.89 m/s, 221° | - | - |
* Rain latest hour (hover to see other rain measurements)
** Current wind speed in m/s (hover to see current wind gust speed)